Location: Ash Swamp
(41.5170°N, 74.6157°W)
Time: 16:57:35
(UTC+00:00)

Cosmos 2112 Rocket - Pass Details

Date: 14 July 2020
Orbit: 756 x 787 km, 74.0° (Epoch: 05 August)

Event Time Altitude Azimuth Distance (km) Brightness Sun altitude
Rises 02:19:24 0° 203° (SSW) 3,260 7.0 -16.2°
Reaches altitude 10° 02:21:47 10° 205° (SSW) 2,338 6.3 -16.5°
Maximum altitude 02:27:06 74° 290° (WNW) 822 4.2 -17.1°
Drops below altitude 10° 02:32:28 10° 16° (NNE) 2,355 7.0 -17.7°
Sets 02:34:53 0° 18° (NNE) 3,286 7.8 -18.0°
